This demonstration page uses our WeatherBlox Daily Observations layout. Learn more.

Left ArrowRight Arrow

38.20091, -84.87328

Hourly Observations for August 21, 2021

Temp ( °F °C ) Dew Point ( °F °C ) Humidity (%) Winds ( mph kmh ) Pressure ( in mb ) Visibility ( mi km ) Precip ( " mm )
12:53 am 00:53 Clear 70 21.1 68 20 93 93 Calm 29.91 1013 7 11 0.00 0.00
1:53 am 01:53 Clear 70 21.1 68 20 93 93 Calm 29.91 1013 7 11 0.00 0.00
2:53 am 02:53 Clear with Mist and Fog 69 20.6 68 20 96 96 Calm 29.90 1013 6 10 0.00 0.00
3:53 am 03:53 Clear 68 20 67 19.4 96 96 Calm 29.90 1013 7 11 0.00 0.00
4:53 am 04:53 Clear with Mist and Fog 67 19.4 66 18.9 97 97 Calm 29.89 1012 6 10 0.00 0.00
5:53 am 05:53 Clear 67 19.4 66 18.9 97 97 Calm 29.89 1012 7 11 0.00 0.00
6:07 am 06:07 Partly Cloudy with Mist and Fog 67 19.4 66 18.9 97 97 Calm 29.89 1012 2 2 0.00 0.00
6:10 am 06:10 Mostly Cloudy with Fog 67 19.4 66 18.9 97 97 Calm 29.89 1012 0 0 0.00 0.00
6:29 am 06:29 Mostly Cloudy with Fog 66 18.9 65 18.3 96 96 SW 3 6 29.90 1013 1 1 0.00 0.00
6:53 am 06:53 Mostly Cloudy with Mist and Fog 66 18.9 65 18.3 96 96 Calm 29.90 1012 1 2 0.00 0.00
6:55 am 06:55 Partly Cloudy with Mist and Fog 66 18.9 66 18.9 100 100 Calm 29.90 1013 2 3 0.00 0.00
7:03 am 07:03 Partly Cloudy with Mist and Fog 67 19.4 66 18.9 97 97 Calm 29.91 1013 5 8 0.00 0.00
7:32 am 07:32 Sunny with Mist and Fog 67 19.4 67 19.4 100 100 Calm 29.91 1013 2 3 0.00 0.00
7:38 am 07:38 Mostly Cloudy with Mist and Fog 67 19.4 67 19.4 100 100 Calm 29.91 1013 1 2 0.00 0.00
7:43 am 07:43 Mostly Cloudy with Fog 68 20 67 19.4 96 96 Calm 29.91 1013 0 0 0.00 0.00
7:53 am 07:53 Mostly Cloudy with Mist and Fog 68 20 68 20 100 100 Calm 29.91 1013 1 2 0.00 0.00
7:58 am 07:58 Partly Cloudy with Mist and Fog 69 20.6 68 20 96 96 Calm 29.92 1013 2 3 0.00 0.00
8:05 am 08:05 Partly Cloudy with Mist and Fog 69 20.6 68 20 96 96 Calm 29.92 1013 5 8 0.00 0.00
8:53 am 08:53 Sunny 74 23.3 70 21.1 88 88 E 3 6 29.91 1013 7 11 0.00 0.00
9:53 am 09:53 Sunny 79 26.1 70 21.1 74 74 Calm 29.91 1013 10 16 0.00 0.00
10:53 am 10:53 Sunny 82 27.8 71 21.7 69 69 SSW 5 7 29.92 1013 10 16 0.00 0.00
11:53 am 11:53 Mostly Sunny 84 28.9 68 20 59 59 undefined N/A 29.91 1013 10 16 0.00 0.00
12:53 pm 12:53 Mostly Sunny 86 30 68 20 55 55 ESE 7 11 29.90 1012 10 16 0.00 0.00
1:53 pm 13:53 Partly Cloudy 86 30 69 20.6 57 57 undefined N/A 29.87 1012 10 16 0.00 0.00
2:53 pm 14:53 Mostly Sunny 87 30.6 68 20 53 53 undefined N/A 29.86 1011 10 16 0.00 0.00
3:53 pm 15:53 Sunny 86 30 68 20 55 55 SSE 5 7 29.85 1011 10 16 0.00 0.00
4:53 pm 16:53 Mostly Cloudy 88 31.1 68 20 52 52 S 7 11 29.84 1011 10 16 0.00 0.00
5:53 pm 17:53 Sunny 88 31.1 67 19.4 50 50 VRB 6 9 29.84 1010 10 16 0.00 0.00
6:53 pm 18:53 Sunny 86 30 67 19.4 53 53 Calm 29.84 1010 10 16 0.00 0.00
7:53 pm 19:53 Sunny 81 27.2 72 22.2 74 74 Calm 29.83 1010 10 16 0.00 0.00
8:53 pm 20:53 Clear 78 25.6 72 22.2 82 82 Calm 29.85 1011 10 16 0.00 0.00
9:53 pm 21:53 Clear 76 24.4 72 22.2 88 88 Calm 29.87 1011 10 16 0.00 0.00
10:53 pm 22:53 Clear 74 23.3 71 21.7 91 91 Calm 29.88 1012 10 16 0.00 0.00
11:53 pm 23:53 Clear 74 23.3 70 21.1 88 88 Calm 29.88 1012 10 16 0.00 0.00

Powered by AerisWeather